FW9704 Weather Reports


time (UTC)temp
F
wind
direction
speed
knots
gust
knots
rain 1hr
in
rain 24hr
in
rain mn
in
humidity
%
barometer
mb
20260510201614 81 112 0.0 2.6 0.00 0.00 0.00 54 993.5
20260510200100 82 279 0.0 3.5 0.00 0.00 0.00 49 993.5
20260510200002 82 192 1.7 3.5 0.00 0.00 0.00 53 993.5
20260510194600 81 61 2.6 7.0 0.00 0.00 0.00 55 993.6
20260510193107 80 224 0.9 3.5 0.00 0.00 0.00 55 993.7
20260510191605 80 73 2.6 5.2 0.00 0.00 0.00 56 993.6
20260510190003 80 25 0.9 3.5 0.00 0.00 0.00 60 993.7
20260510184600 80 103 0.9 3.5 0.00 0.00 0.00 58 993.7
20260510183100 81 228 0.0 6.1 0.00 0.00 0.00 48 994.0
20260510181601 80 159 2.6 7.8 0.00 0.00 0.00 60 993.9
20260510180110 81 141 2.6 7.0 0.00 0.00 0.00 53 994.1
20260510180001 81 145 3.5 7.0 0.00 0.00 0.00 56 994.1
20260510174604 80 145 3.5 8.7 0.00 0.00 0.00 56 994.2
20260510173107 80 245 0.9 7.0 0.00 0.00 0.00 61 994.5
20260510171604 79 196 0.9 6.1 0.00 0.00 0.00 65 994.6
20260510170059 79 264 1.7 7.0 0.00 0.00 0.00 68 994.6
20260510170001 79 117 3.5 7.0 0.00 0.00 0.00 69 994.6
20260510164606 78 233 1.7 6.1 0.00 0.00 0.00 70 994.5
20260510163100 77 67 0.9 3.5 0.00 0.00 0.00 72 994.7
20260510161601 77 286 1.7 7.0 0.00 0.00 0.00 78 994.6
20260510161501 77 294 1.7 7.0 0.00 0.00 0.00 77 994.5
20260510160101 75 164 0.0 2.6 0.00 0.00 0.00 81 994.4
20260510160002 75 156 0.0 7.8 0.00 0.00 0.00 81 994.4
20260510154600 75 336 1.7 5.2 0.00 0.00 0.00 82 994.7
20260510153059 73 289 2.6 5.2 0.00 0.00 0.00 86 994.7
20260510151606 71 79 0.9 3.5 0.00 0.00 0.00 90 994.6
20260510150109 68 146 0.0 2.6 0.00 0.00 0.00 94 994.4
20260510150002 68 146 0.0 2.6 0.00 0.00 0.00 95 994.4
20260510144608 66 186 0.0 2.6 0.00 0.00 0.00 99 994.4
20260510143108 65 122 0.9 1.7 0.00 0.00 0.00 100 994.4
20260510141559 64 124 0.0 2.6 0.00 0.00 0.00 100 994.3
20260510140059 63 119 1.7 2.6 0.00 0.00 0.00 100 994.3
20260510140002 63 129 1.7 2.6 0.00 0.00 0.00 100 994.3
20260510134607 62 143 0.0 2.6 0.00 0.00 0.00 100 994.4
20260510133100 61 116 0.9 1.7 0.00 0.00 0.00 100 994.3
20260510131559 60 87 0.0 0.0 0.00 0.00 0.00 100 994.3
20260510130117 59 87 0.0 0.0 0.00 0.00 0.00 100 994.1
20260510130002 59 87 0.0 0.0 0.00 0.00 0.00 100 994.1
20260510124605 58 82 0.0 0.0 0.00 0.00 0.00 100 994.1
20260510123100 56 22 0.0 0.0 0.00 0.00 0.00 100 994.0
20260510121559 55 23 0.0 0.0 0.00 0.00 0.00 100 994.2
20260510120059 55 51 0.0 0.0 0.00 0.00 0.00 100 993.7
20260510120002 55 51 0.0 0.0 0.00 0.00 0.00 100 993.7
20260510114559 54 51 0.0 0.0 0.00 0.00 0.00 100 993.1
20260510113112 54 330 0.0 0.0 0.00 0.00 0.00 100 992.9
20260510111559 54 359 0.0 0.0 0.00 0.00 0.00 100 992.7
20260510110059 54 330 0.0 0.0 0.00 0.00 0.00 99 992.4
20260510110001 54 330 0.0 0.0 0.00 0.00 0.00 99 992.4
20260510104559 54 330 0.0 0.0 0.00 0.00 0.00 99 992.2
20260510103100 54 330 0.0 0.0 0.00 0.00 0.00 99 992.1
20260510101602 54 330 0.0 0.0 0.00 0.00 0.00 99 992.0
20260510100107 54 330 0.0 0.0 0.00 0.00 0.00 99 991.8
20260510100002 54 330 0.0 0.0 0.00 0.00 0.00 99 991.8
20260510094559 54 330 0.0 0.0 0.00 0.00 0.00 99 991.6
20260510093100 54 330 0.0 0.0 0.00 0.00 0.00 98 991.4
20260510091601 55 330 0.0 0.0 0.00 0.00 0.00 99 991.4
20260510090002 55 330 0.0 0.0 0.00 0.00 0.00 99 991.4
20260510084601 55 234 0.0 0.0 0.00 0.00 0.00 98 991.4
20260510083102 56 244 0.0 0.0 0.00 0.00 0.00 98 991.4
20260510081559 56 244 0.0 0.0 0.00 0.00 0.00 98 991.3
20260510080105 56 244 0.0 0.0 0.00 0.00 0.00 98 991.1
20260510080001 56 244 0.0 0.0 0.00 0.00 0.00 98 991.1
20260510074559 56 244 0.0 0.0 0.00 0.00 0.00 98 991.0
20260510073116 57 244 0.0 0.0 0.00 0.00 0.00 98 990.9
20260510071559 57 244 0.0 0.0 0.00 0.00 0.00 98 990.9
20260510070106 57 244 0.0 0.0 0.00 0.00 0.00 98 990.8
20260510064636 58 244 0.0 0.0 0.00 0.00 0.00 97 991.1
20260510063058 58 244 0.0 0.0 0.00 0.00 0.00 97 991.0
20260510061558 58 244 0.0 0.0 0.00 0.00 0.00 97 990.9
20260510060058 59 244 0.0 0.0 0.00 0.00 0.00 97 991.0
20260510060007 59 244 0.0 0.0 0.00 0.00 0.00 97 991.0
20260510054501 59 244 0.0 0.0 0.00 0.00 0.00 97 990.9
20260510053003 60 244 0.0 0.0 0.00 0.00 0.00 96 991.1
20260510051502 60 244 0.0 0.0 0.00 0.00 0.00 96 991.1
20260510050006 61 244 0.0 0.0 0.00 0.00 0.00 95 991.0
20260510044501 61 244 0.0 0.0 0.00 0.00 0.00 96 990.9
20260510043002 62 244 0.0 1.7 0.00 0.00 0.00 96 991.0
20260510041503 62 234 0.0 2.6 0.00 0.00 0.00 96 991.1
20260510040002 62 227 0.9 3.5 0.00 0.00 0.00 95 991.2
20260510034618 62 219 0.0 1.7 0.00 0.00 0.00 95 991.3
20260510033106 62 258 0.0 0.9 0.00 0.00 0.00 94 991.1
20260510031601 62 268 0.0 0.0 0.00 0.00 0.00 94 991.1
20260510030110 63 223 0.0 0.0 0.00 0.00 0.00 93 991.1
20260510030003 63 223 0.0 0.0 0.00 0.00 0.00 93 991.1
20260510024602 63 223 0.0 2.6 0.00 0.00 0.00 93 990.9
20260510023100 64 255 0.0 0.0 0.00 0.00 0.00 92 990.8
20260510021605 64 255 0.0 0.9 0.00 0.00 0.00 91 990.5
20260510020100 65 274 0.0 0.0 0.00 0.00 0.00 89 990.2
20260510020003 65 274 0.0 0.0 0.00 0.00 0.00 89 990.2
20260510014607 66 274 0.0 0.0 0.00 0.00 0.00 89 989.7
20260510013135 66 274 0.0 0.0 0.00 0.00 0.00 86 989.5
20260510011600 68 274 0.0 0.0 0.00 0.00 0.00 85 989.2
20260510010059 69 274 0.0 0.0 0.00 0.00 0.00 83 988.9
20260510010002 69 274 0.0 0.0 0.00 0.00 0.00 83 988.9
20260510004600 70 274 0.0 0.0 0.00 0.00 0.00 82 988.6
20260510003107 72 274 0.0 0.0 0.00 0.00 0.00 79 988.5
20260510001600 73 274 0.0 0.0 0.00 0.00 0.00 77 988.4
20260510000127 73 274 0.0 2.6 0.00 0.00 0.00 76 988.4
20260510000002 73 274 0.0 2.6 0.00 0.00 0.00 76 988.4
20260509234700 74 266 0.0 0.0 0.00 0.00 0.00 74 988.1
20260509233100 75 276 0.9 2.6 0.00 0.00 0.00 73 988.2
20260509231623 76 274 0.9 2.6 0.00 0.00 0.00 73 988.3
20260509230109 76 265 0.0 1.7 0.00 0.00 0.00 74 988.1
20260509230003 76 265 0.0 1.7 0.00 0.00 0.00 73 988.1
20260509224600 76 256 0.0 1.7 0.00 0.00 0.00 69 988.1
20260509223111 77 274 0.0 0.9 0.00 0.00 0.00 69 987.9
20260509221626 78 218 0.0 2.6 0.00 0.00 0.00 65 987.9
20260509220002 78 275 1.7 6.1 0.00 0.00 0.00 60 987.6
20260509214604 79 294 3.5 7.8 0.00 0.00 0.00 59 987.6
20260509213100 79 268 0.9 6.1 0.00 0.00 0.00 61 987.5
20260509211606 79 279 2.6 8.7 0.00 0.00 0.00 60 987.7
20260509210101 79 304 0.9 7.0 0.00 0.00 0.00 59 987.8
20260509210001 79 330 1.7 7.0 0.00 0.00 0.00 61 987.8
20260509204603 79 233 2.6 5.2 0.00 0.00 0.00 57 987.9
20260509203100 79 267 2.6 7.0 0.00 0.00 0.00 56 988.1